Viroqua, WI

1:14 AM CDT on August 26, 2016 (GMT -0500)
Viroqua

Weather History for KY51 - January, 2013

Change the Weather History Date:

Wednesday, January 23, 2013

  Actual Average (KLSE) Record (KLSE)
Temperature  
Mean Temperature 10 °F 17 °F  
Max Temperature 19 °F 26 °F 50 °F (1916)
Min Temperature 0 °F 9 °F -26 °F (1963)
Degree Days  
Heating Degree Days 56 48  
Month to date heating degree days 1100  
Since 1 July heating degree days 3944  
Cooling Degree Days 0 0  
Month to date cooling degree days 0  
Year to date cooling degree days 0  
Moisture  
Dew Point 3 °F    
Average Humidity 74    
Maximum Humidity 92    
Minimum Humidity 60    
Precipitation  
Precipitation 0.00 in 0.04 in 0.57 in (1979)
Month to date precipitation 0.82  
Year to date precipitation 0.82  
Snow  
Snow 0.00 in 0.40 in 5.30 in (1979)
Month to date snowfall 7.6  
Since 1 July snowfall 23.2  
Snow Depth -    
Sea Level Pressure  
Sea Level Pressure 30.18 in    
Wind  
Wind Speed 10 mph (West)    
Max Wind Speed 24 mph    
Max Gust Speed 34 mph    
Visibility 7 miles    
Events      
T = Trace of Precipitation, MM = Missing Value Source: NWS Daily Summary

Daily Weather History Graph

Daily Weather History Graph

Search for Another Location

Airport or City:

Trip Planner

Search our weather history database for the weather conditions in past years. The results will help you decide how hot, cold, wet, or windy it might be!

Date:

Astronomy

Jan. 23, 2013 Rise Set
Actual Time 7:28 AM CST 5:03 PM CST
Civil Twilight 6:57 AM CST 5:34 PM CST
Nautical Twilight 6:22 AM CST 6:09 PM CST
Astronomical Twilight 5:48 AM CST 6:43 PM CST
Moon 2:12 PM CST (1/23) 4:41 AM CST (1/23)
Length of Visible Light 10h 37m
Length of Day
9h 34m
Waxing Gibbous, 89% of the Moon is Illuminated
Jan 23
Waxing Gibbous
Jan 26
Full
Feb 3
Last Quarter
Feb 10
New
Feb 17
First Quarter

Hourly Weather History & Observations

Time (CST) Temp. Windchill Dew Point Humidity Pressure Visibility Wind Dir Wind Speed Gust Speed Precip Events Conditions
12:15 AM 6.8 °F -3.5 °F -2.2 °F 67% 30.21 in 10.0 mi SW 5.8 mph - N/A   Overcast
12:35 AM 6.8 °F -4.8 °F -2.2 °F 67% 30.20 in 10.0 mi SW 6.9 mph - N/A   Overcast
12:55 AM 6.8 °F -4.8 °F -0.4 °F 72% 30.20 in 10.0 mi WSW 6.9 mph - N/A   Overcast
1:15 AM 8.6 °F -4.7 °F -0.4 °F 67% 30.20 in 10.0 mi WSW 9.2 mph - N/A   Overcast
1:35 AM 8.6 °F -3.7 °F -0.4 °F 67% 30.19 in 10.0 mi WSW 8.1 mph - N/A   Overcast
1:55 AM 8.6 °F -1.3 °F -0.4 °F 67% 30.20 in 10.0 mi WSW 5.8 mph - N/A   Overcast
2:15 AM 8.6 °F -2.6 °F -0.4 °F 67% 30.19 in 10.0 mi WSW 6.9 mph - N/A   Overcast
2:55 AM 8.6 °F -2.6 °F 1.4 °F 73% 30.19 in 10.0 mi SW 6.9 mph - N/A   Overcast
3:15 AM 8.6 °F -2.6 °F 1.4 °F 73% 30.18 in 10.0 mi WSW 6.9 mph - N/A   Overcast
3:55 AM 8.6 °F 0.1 °F 1.4 °F 73% 30.17 in 10.0 mi SW 4.6 mph - N/A   Overcast
4:15 AM 10.4 °F 0.8 °F 1.4 °F 67% 30.16 in 10.0 mi SSW 5.8 mph - N/A   Overcast
4:35 AM 10.4 °F 0.8 °F 3.2 °F 73% 30.15 in 10.0 mi SW 5.8 mph - N/A   Overcast
4:55 AM 10.4 °F 0.8 °F 3.2 °F 73% 30.15 in 10.0 mi SSW 5.8 mph - N/A   Overcast
5:15 AM 10.4 °F 0.8 °F 3.2 °F 73% 30.14 in 10.0 mi SSW 5.8 mph - N/A   Overcast
5:35 AM 10.4 °F -1.5 °F 3.2 °F 73% 30.14 in 5.0 mi SSW 8.1 mph - N/A   Overcast
5:55 AM 10.4 °F -1.5 °F 5.0 °F 79% 30.14 in 2.0 mi SSW 8.1 mph - N/A   Overcast
6:15 AM 10.4 °F 0.8 °F 5.0 °F 79% 30.13 in 3.0 mi South 5.8 mph - N/A   Overcast
6:35 AM 10.4 °F 0.8 °F 5.0 °F 79% 30.13 in 4.0 mi SSW 5.8 mph - N/A   Overcast
6:55 AM 10.4 °F -0.4 °F 6.8 °F 85% 30.13 in 2.5 mi SSW 6.9 mph - N/A   Overcast
7:15 AM 10.4 °F -1.5 °F 6.8 °F 85% 30.12 in 2.0 mi SSW 8.1 mph - N/A   Overcast
7:55 AM 10.4 °F -1.5 °F 8.6 °F 92% 30.11 in 1.5 mi SSW 8.1 mph - N/A   Overcast
8:15 AM 10.4 °F 0.8 °F 8.6 °F 92% 30.11 in 1.5 mi SW 5.8 mph - N/A   Overcast
8:35 AM 10.4 °F -1.5 °F 8.6 °F 92% 30.11 in 1.8 mi SSW 8.1 mph - N/A   Overcast
8:55 AM 12.2 °F 1.7 °F 8.6 °F 85% 30.11 in 3.0 mi SW 6.9 mph - N/A   Overcast
9:35 AM 12.2 °F -0.2 °F 8.6 °F 85% 30.12 in 2.5 mi SW 9.2 mph - N/A   Overcast
9:55 AM 14.0 °F 2.9 °F 10.4 °F 86% 30.11 in 2.0 mi SW 8.1 mph - N/A   Overcast
10:15 AM 14.0 °F 2.0 °F 10.4 °F 86% 30.12 in 2.0 mi WSW 9.2 mph - N/A   Overcast
10:35 AM 14.0 °F 1.2 °F 10.4 °F 86% 30.11 in 1.8 mi WSW 10.4 mph - N/A   Overcast
10:55 AM 15.8 °F 2.1 °F 10.4 °F 79% 30.10 in 3.0 mi WSW 12.7 mph - N/A   Overcast
11:15 AM 17.6 °F 5.0 °F 12.2 °F 79% 30.10 in 5.0 mi WSW 11.5 mph - N/A   Overcast
11:55 AM 17.6 °F 8.2 °F 12.2 °F 79% 30.08 in 5.0 mi West 6.9 mph - N/A   Overcast
12:15 PM 17.6 °F 5.7 °F 12.2 °F 79% 30.07 in 4.0 mi West 10.4 mph - N/A   Overcast
12:35 PM 17.6 °F 5.7 °F 12.2 °F 79% 30.06 in 4.0 mi West 10.4 mph - N/A   Overcast
12:55 PM 17.6 °F 6.4 °F 12.2 °F 79% 30.05 in 2.5 mi West 9.2 mph - N/A   Overcast
1:15 PM 19.4 °F 6.6 °F 12.2 °F 74% 30.05 in 5.0 mi West 12.7 mph 17.3 mph N/A   Overcast
1:55 PM 17.6 °F 5.7 °F 14.0 °F 86% 30.04 in 2.5 mi WNW 10.4 mph 16.1 mph N/A   Overcast
2:15 PM 17.6 °F 2.2 °F 12.2 °F 79% 30.04 in 2.5 mi NW 17.3 mph 21.9 mph N/A   Overcast
2:35 PM 17.6 °F 2.7 °F 12.2 °F 79% 30.06 in 5.0 mi WNW 16.1 mph 20.7 mph N/A   Overcast
2:55 PM 17.6 °F 3.2 °F 10.4 °F 73% 30.06 in 10.0 mi WNW 15.0 mph 20.7 mph N/A   Overcast
3:15 PM 17.6 °F 2.7 °F 10.4 °F 73% 30.07 in 10.0 mi WNW 16.1 mph - N/A   Mostly Cloudy
3:55 PM 17.6 °F 2.2 °F 8.6 °F 68% 30.09 in 7.0 mi NW 17.3 mph 25.3 mph N/A   Overcast
4:15 PM 17.6 °F 2.2 °F 8.6 °F 68% 30.09 in 7.0 mi NW 17.3 mph 25.3 mph N/A   Overcast
4:35 PM 15.8 °F -1.9 °F 10.4 °F 79% 30.10 in 1.5 mi NW 21.9 mph 26.5 mph N/A   Overcast
4:55 PM 14.0 °F -3.0 °F 10.4 °F 86% 30.11 in 5.0 mi NW 18.4 mph 25.3 mph N/A   Overcast
5:15 PM 14.0 °F -4.3 °F 6.8 °F 73% 30.12 in 10.0 mi NW 21.9 mph 27.6 mph N/A   Overcast
5:55 PM 12.2 °F -7.5 °F 5.0 °F 73% 30.17 in 7.0 mi NNW 24.2 mph 34.5 mph N/A   Mostly Cloudy
6:15 PM 10.4 °F -9.9 °F 3.2 °F 73% 30.19 in 10.0 mi NNW 24.2 mph 33.4 mph N/A   Scattered Clouds
6:35 PM 10.4 °F -8.6 °F -0.4 °F 62% 30.21 in 10.0 mi NNW 20.7 mph 32.2 mph N/A   Scattered Clouds
6:55 PM 8.6 °F -11.4 °F -2.2 °F 62% 30.24 in 10.0 mi NNW 21.9 mph 27.6 mph N/A   Clear
7:15 PM 8.6 °F -9.5 °F -0.4 °F 67% 30.25 in 10.0 mi NNW 17.3 mph 21.9 mph N/A   Scattered Clouds
7:35 PM 8.6 °F -11.4 °F -0.4 °F 67% 30.25 in 10.0 mi North 21.9 mph 34.5 mph N/A   Mostly Cloudy
7:55 PM 6.8 °F -12.9 °F -0.4 °F 72% 30.28 in 4.0 mi North 19.6 mph 28.8 mph N/A   Mostly Cloudy
8:35 PM 5.0 °F -15.2 °F -5.8 °F 61% 30.32 in 10.0 mi NNW 19.6 mph 24.2 mph N/A   Mostly Cloudy
8:55 PM 3.2 °F -15.9 °F -5.8 °F 66% 30.33 in 10.0 mi North 16.1 mph 27.6 mph N/A   Mostly Cloudy
9:15 PM 3.2 °F -14.6 °F -7.6 °F 61% 30.34 in 10.0 mi North 13.8 mph 19.6 mph N/A   Clear
9:35 PM 1.4 °F -16.9 °F -7.6 °F 66% 30.36 in 10.0 mi North 13.8 mph - N/A   Clear
9:55 PM 1.4 °F -16.9 °F -7.6 °F 66% 30.37 in 10.0 mi North 13.8 mph - N/A   Clear
10:15 PM 1.4 °F -18.2 °F -9.4 °F 61% 30.37 in 10.0 mi North 16.1 mph 20.7 mph N/A   Clear
10:35 PM 1.4 °F -18.2 °F -9.4 °F 61% 30.39 in 10.0 mi North 16.1 mph 21.9 mph N/A   Clear
10:55 PM -0.4 °F -19.2 °F -9.4 °F 66% 30.40 in 10.0 mi North 13.8 mph - N/A   Clear
11:15 PM -0.4 °F -15.7 °F -11.2 °F 60% 30.42 in 10.0 mi North 9.2 mph - N/A   Clear
11:35 PM -0.4 °F -18.4 °F -11.2 °F 60% 30.42 in 10.0 mi North 12.7 mph 18.4 mph N/A   Clear
11:55 PM -0.4 °F -14.7 °F -11.2 °F 60% 30.44 in 10.0 mi North 8.1 mph - N/A   Clear